Year,Month,Day,Hour,Minute,Value (Times are PST for temperature in C)
2016,08,14,09,20,21.80
2016,08,14,09,21,21.80
2016,08,14,09,22,21.90
2016,08,14,09,23,21.90
2016,08,14,09,24,21.90
2016,08,14,09,25,21.90
2016,08,14,09,26,22.00
2016,08,14,09,27,22.10
2016,08,14,09,28,22.20
2016,08,14,09,29,22.30
2016,08,14,09,30,22.30
2016,08,14,09,31,22.30
2016,08,14,09,32,22.30
2016,08,14,09,33,22.40
2016,08,14,09,34,22.40
2016,08,14,09,35,22.50
2016,08,14,09,36,22.60
2016,08,14,09,37,22.70
2016,08,14,09,38,22.70
2016,08,14,09,39,22.70
2016,08,14,09,40,22.80
2016,08,14,09,41,22.80
2016,08,14,09,42,22.90
2016,08,14,09,43,23.00
2016,08,14,09,44,23.10
2016,08,14,09,45,23.20
2016,08,14,09,46,23.20
2016,08,14,09,47,23.30
2016,08,14,09,48,23.30
2016,08,14,09,49,23.30
2016,08,14,09,50,23.30
2016,08,14,09,51,23.40
2016,08,14,09,52,23.40
2016,08,14,09,53,23.40
2016,08,14,09,54,23.20
2016,08,14,09,55,23.10
2016,08,14,09,56,23.00
2016,08,14,09,57,22.90
2016,08,14,09,58,22.90
2016,08,14,09,59,22.90
2016,08,14,10,00,23.00
2016,08,14,10,01,23.00
2016,08,14,10,02,23.00
2016,08,14,10,03,23.00
2016,08,14,10,04,23.10
2016,08,14,10,05,23.10
2016,08,14,10,06,23.20
2016,08,14,10,07,23.30
2016,08,14,10,08,23.40
2016,08,14,10,09,23.40
2016,08,14,10,10,23.40
2016,08,14,10,11,23.50
2016,08,14,10,12,23.40
2016,08,14,10,13,23.30
2016,08,14,10,14,23.30
2016,08,14,10,15,23.30
2016,08,14,10,16,23.10
2016,08,14,10,17,23.10
2016,08,14,10,18,22.90
2016,08,14,10,19,22.80
2016,08,14,10,20,22.80
2016,08,14,10,21,22.80
2016,08,14,10,22,22.80
2016,08,14,10,23,22.90
2016,08,14,10,24,23.10
2016,08,14,10,25,23.20
2016,08,14,10,26,23.30
2016,08,14,10,27,23.40
2016,08,14,10,28,23.50
2016,08,14,10,29,23.50
2016,08,14,10,30,23.50
2016,08,14,10,31,23.40
2016,08,14,10,32,23.50
2016,08,14,10,33,23.60
2016,08,14,10,34,23.60
2016,08,14,10,35,23.60
2016,08,14,10,36,23.70
2016,08,14,10,37,23.70
2016,08,14,10,38,23.80
2016,08,14,10,39,24.00
2016,08,14,10,40,24.10
2016,08,14,10,41,24.10
2016,08,14,10,42,24.10
2016,08,14,10,43,24.00
2016,08,14,10,44,23.80
2016,08,14,10,45,23.80
2016,08,14,10,46,23.80
2016,08,14,10,47,23.70
2016,08,14,10,48,23.70
2016,08,14,10,49,23.70
2016,08,14,10,50,23.80
2016,08,14,10,51,23.80
2016,08,14,10,52,23.80
2016,08,14,10,53,23.80
2016,08,14,10,54,23.80
2016,08,14,10,55,23.70
2016,08,14,10,56,23.60
2016,08,14,10,57,23.60
2016,08,14,10,58,23.60
2016,08,14,10,59,23.70
2016,08,14,11,00,23.80
2016,08,14,11,01,23.80
2016,08,14,11,02,23.70
2016,08,14,11,03,23.70
2016,08,14,11,04,23.70
2016,08,14,11,05,23.80
2016,08,14,11,06,23.80
2016,08,14,11,07,23.60
2016,08,14,11,08,23.50
2016,08,14,11,09,23.40
2016,08,14,11,10,23.30
2016,08,14,11,11,23.30
2016,08,14,11,12,23.40
2016,08,14,11,13,23.50
2016,08,14,11,14,23.60
2016,08,14,11,15,23.70
2016,08,14,11,16,23.70
2016,08,14,11,17,23.80
2016,08,14,11,18,23.80
2016,08,14,11,19,23.80
2016,08,14,11,20,23.90
2016,08,14,11,21,24.00
2016,08,14,11,22,24.00
2016,08,14,11,23,24.00
2016,08,14,11,24,23.90
2016,08,14,11,25,23.90
2016,08,14,11,26,23.90
2016,08,14,11,27,24.00
2016,08,14,11,28,24.10
2016,08,14,11,29,24.10
2016,08,14,11,30,24.10
2016,08,14,11,31,24.00
2016,08,14,11,32,24.00
2016,08,14,11,33,24.00
2016,08,14,11,34,24.00
2016,08,14,11,35,24.00
2016,08,14,11,36,23.90
2016,08,14,11,37,23.90
2016,08,14,11,38,23.90
2016,08,14,11,39,24.00
2016,08,14,11,40,24.10
2016,08,14,11,41,24.10
2016,08,14,11,42,24.20
2016,08,14,11,43,24.30
2016,08,14,11,44,24.40
2016,08,14,11,45,24.60
2016,08,14,11,46,24.70
2016,08,14,11,47,24.90
2016,08,14,11,48,25.00
2016,08,14,11,49,25.10
2016,08,14,11,50,25.20
2016,08,14,11,51,25.20
2016,08,14,11,52,25.20
2016,08,14,11,53,25.20
2016,08,14,11,54,25.30
2016,08,14,11,55,25.40
2016,08,14,11,56,25.40
2016,08,14,11,57,25.40
2016,08,14,11,58,25.30
2016,08,14,11,59,25.10
2016,08,14,12,00,24.90
2016,08,14,12,01,24.70
2016,08,14,12,02,24.60
2016,08,14,12,03,24.30
2016,08,14,12,04,24.10
2016,08,14,12,05,23.90
2016,08,14,12,06,23.80
2016,08,14,12,07,23.80
2016,08,14,12,08,23.80
2016,08,14,12,09,23.70
2016,08,14,12,10,23.70
2016,08,14,12,11,23.70
2016,08,14,12,12,23.70
2016,08,14,12,13,23.80
2016,08,14,12,14,23.70
2016,08,14,12,15,23.60
2016,08,14,12,16,23.50
2016,08,14,12,17,23.50
2016,08,14,12,18,23.50
2016,08,14,12,19,23.50
2016,08,14,12,20,23.60
2016,08,14,12,21,23.60
2016,08,14,12,22,23.60
2016,08,14,12,23,23.60
2016,08,14,12,24,23.60
2016,08,14,12,25,23.70
2016,08,14,12,26,23.80
2016,08,14,12,27,23.90
2016,08,14,12,28,24.00
2016,08,14,12,29,24.00
2016,08,14,12,30,24.10
2016,08,14,12,31,24.10
2016,08,14,12,32,24.10
2016,08,14,12,33,24.10
2016,08,14,12,34,24.10
2016,08,14,12,35,24.00
2016,08,14,12,36,24.00
2016,08,14,12,37,24.00
2016,08,14,12,38,24.00
2016,08,14,12,39,23.90
2016,08,14,12,40,23.90
2016,08,14,12,41,24.00
2016,08,14,12,42,24.10
2016,08,14,12,43,24.10
2016,08,14,12,44,24.20
2016,08,14,12,45,24.30
2016,08,14,12,46,24.40
2016,08,14,12,47,24.50
2016,08,14,12,48,24.60
2016,08,14,12,49,24.60
2016,08,14,12,50,24.70
2016,08,14,12,51,24.70
2016,08,14,12,52,24.70
2016,08,14,12,53,24.80
2016,08,14,12,54,24.80
2016,08,14,12,55,24.70
2016,08,14,12,56,24.70
2016,08,14,12,57,24.80
2016,08,14,12,58,24.80
2016,08,14,12,59,24.80
2016,08,14,13,00,24.80
2016,08,14,13,01,24.80
2016,08,14,13,02,24.80
2016,08,14,13,03,24.80
2016,08,14,13,04,24.80
2016,08,14,13,05,24.80
2016,08,14,13,06,24.80
2016,08,14,13,07,24.80
2016,08,14,13,08,24.90
2016,08,14,13,09,25.00
2016,08,14,13,10,25.00
2016,08,14,13,11,25.10
2016,08,14,13,12,25.10
2016,08,14,13,13,25.10
2016,08,14,13,14,25.10
2016,08,14,13,15,25.30
2016,08,14,13,16,25.40
2016,08,14,13,17,25.40
2016,08,14,13,18,25.40
2016,08,14,13,19,25.40
2016,08,14,13,20,25.50
2016,08,14,13,21,25.50
2016,08,14,13,22,25.50
2016,08,14,13,23,25.50
2016,08,14,13,24,25.50
2016,08,14,13,25,25.60
2016,08,14,13,26,25.50
2016,08,14,13,27,25.50
2016,08,14,13,28,25.40
2016,08,14,13,29,25.30
2016,08,14,13,30,25.20
2016,08,14,13,31,25.10
2016,08,14,13,32,25.10
2016,08,14,13,33,25.00
2016,08,14,13,34,25.10
2016,08,14,13,35,25.10
2016,08,14,13,36,25.20
2016,08,14,13,37,25.20
2016,08,14,13,38,25.20
2016,08,14,13,39,25.20
2016,08,14,13,40,25.30
2016,08,14,13,41,25.40
2016,08,14,13,42,25.40
2016,08,14,13,43,25.40
2016,08,14,13,44,25.40
2016,08,14,13,45,25.50
2016,08,14,13,46,25.50
2016,08,14,13,47,25.50
2016,08,14,13,48,25.50
2016,08,14,13,49,25.50
2016,08,14,13,50,25.50
2016,08,14,13,51,25.50
2016,08,14,13,52,25.50
2016,08,14,13,53,25.60
2016,08,14,13,54,25.60
2016,08,14,13,55,25.60
2016,08,14,13,56,25.60
2016,08,14,13,57,25.70
2016,08,14,13,58,25.80
2016,08,14,13,59,25.90
2016,08,14,14,00,25.90
2016,08,14,14,01,25.80
2016,08,14,14,02,25.70
2016,08,14,14,03,25.80
2016,08,14,14,04,25.80
2016,08,14,14,05,25.90
2016,08,14,14,06,25.90
2016,08,14,14,07,25.90
2016,08,14,14,08,25.90
2016,08,14,14,09,26.00
2016,08,14,14,10,26.00
2016,08,14,14,11,25.90
2016,08,14,14,12,25.90
2016,08,14,14,13,25.90
2016,08,14,14,14,25.90
2016,08,14,14,15,25.90
2016,08,14,14,16,26.00
2016,08,14,14,17,26.10
2016,08,14,14,18,26.20
2016,08,14,14,19,26.30
2016,08,14,14,20,26.30
2016,08,14,14,21,26.30
2016,08,14,14,22,26.30
2016,08,14,14,23,26.30
2016,08,14,14,24,26.40
2016,08,14,14,25,26.40
2016,08,14,14,26,26.50
2016,08,14,14,27,26.50
2016,08,14,14,28,26.50
2016,08,14,14,29,26.50
2016,08,14,14,30,26.60
2016,08,14,14,31,26.60
2016,08,14,14,32,26.60
2016,08,14,14,33,26.60
2016,08,14,14,34,26.60
2016,08,14,14,35,26.60
2016,08,14,14,36,26.60
2016,08,14,14,37,26.60
2016,08,14,14,38,26.60
2016,08,14,14,39,26.60
2016,08,14,14,40,26.60
2016,08,14,14,41,26.60
2016,08,14,14,42,26.40
2016,08,14,14,43,26.40
2016,08,14,14,44,26.40
2016,08,14,14,45,26.40
2016,08,14,14,46,26.40
2016,08,14,14,47,26.40
2016,08,14,14,48,26.40
2016,08,14,14,49,26.40
2016,08,14,14,50,26.30
2016,08,14,14,51,26.30
2016,08,14,14,52,26.20
2016,08,14,14,53,26.20
2016,08,14,14,54,26.20
2016,08,14,14,55,26.10
2016,08,14,14,56,26.10
2016,08,14,14,57,26.10
2016,08,14,14,58,26.20
2016,08,14,14,59,26.20
2016,08,14,15,00,26.30
2016,08,14,15,01,26.40
2016,08,14,15,02,26.40
2016,08,14,15,03,26.40
2016,08,14,15,04,26.40
2016,08,14,15,05,26.50
2016,08,14,15,06,26.50
2016,08,14,15,07,26.60
2016,08,14,15,08,26.60
2016,08,14,15,09,26.60
2016,08,14,15,10,26.50
2016,08,14,15,11,26.40
2016,08,14,15,12,26.30
2016,08,14,15,13,26.30
2016,08,14,15,14,26.30
2016,08,14,15,15,26.30
2016,08,14,15,16,26.30
2016,08,14,15,17,26.30
2016,08,14,15,18,26.30
2016,08,14,15,19,26.30
2016,08,14,15,20,26.30
2016,08,14,15,21,26.40
2016,08,14,15,22,26.50
2016,08,14,15,23,26.60
2016,08,14,15,24,26.70
2016,08,14,15,25,26.70
2016,08,14,15,26,26.60
2016,08,14,15,27,26.60
2016,08,14,15,28,26.50
2016,08,14,15,29,26.40
2016,08,14,15,30,26.30
2016,08,14,15,31,26.30
2016,08,14,15,32,26.30
2016,08,14,15,33,26.20
2016,08,14,15,34,26.20
2016,08,14,15,35,26.20
2016,08,14,15,36,26.10
2016,08,14,15,37,26.10
2016,08,14,15,38,26.20
2016,08,14,15,39,26.20
2016,08,14,15,40,26.20
2016,08,14,15,41,26.30
2016,08,14,15,42,26.40
2016,08,14,15,43,26.40
2016,08,14,15,44,26.40
2016,08,14,15,45,26.40
2016,08,14,15,46,26.40
2016,08,14,15,47,26.30
2016,08,14,15,48,26.40
2016,08,14,15,49,26.50
2016,08,14,15,50,26.60
2016,08,14,15,51,26.50
2016,08,14,15,52,26.50
2016,08,14,15,53,26.40
2016,08,14,15,54,26.40
2016,08,14,15,55,26.30
2016,08,14,15,56,26.20
2016,08,14,15,57,26.10
2016,08,14,15,58,26.00
2016,08,14,15,59,25.90
2016,08,14,16,00,25.90
2016,08,14,16,01,25.90
2016,08,14,16,02,26.00
2016,08,14,16,03,26.10
2016,08,14,16,04,26.10
2016,08,14,16,05,26.20
2016,08,14,16,06,26.10
2016,08,14,16,07,25.90
2016,08,14,16,08,25.90
2016,08,14,16,09,25.90
2016,08,14,16,10,25.90
2016,08,14,16,11,25.90
2016,08,14,16,12,25.90
2016,08,14,16,13,25.80
2016,08,14,16,14,25.80
2016,08,14,16,15,25.80
2016,08,14,16,16,25.70
2016,08,14,16,17,25.80
2016,08,14,16,18,25.90
2016,08,14,16,19,26.00
2016,08,14,16,20,26.10
2016,08,14,16,21,26.20
2016,08,14,16,22,26.30
2016,08,14,16,23,26.40
2016,08,14,16,24,26.50
2016,08,14,16,25,26.60
2016,08,14,16,26,26.60
2016,08,14,16,27,26.60
2016,08,14,16,28,26.60
2016,08,14,16,29,26.60
2016,08,14,16,30,26.40
2016,08,14,16,31,26.30
2016,08,14,16,32,26.20
2016,08,14,16,33,26.10
2016,08,14,16,34,26.00
2016,08,14,16,35,26.00
2016,08,14,16,36,25.90
2016,08,14,16,37,25.90
2016,08,14,16,38,25.90
2016,08,14,16,39,25.80
2016,08,14,16,40,25.80
2016,08,14,16,41,25.80
2016,08,14,16,42,25.80
2016,08,14,16,43,25.90
2016,08,14,16,44,25.90
2016,08,14,16,45,25.90
2016,08,14,16,46,25.90
2016,08,14,16,47,25.90
2016,08,14,16,48,25.90
2016,08,14,16,49,26.00
2016,08,14,16,50,26.00
2016,08,14,16,51,26.10
2016,08,14,16,52,26.10
2016,08,14,16,53,26.10
2016,08,14,16,54,26.10
2016,08,14,16,55,26.20
2016,08,14,16,56,26.30
2016,08,14,16,57,26.40
2016,08,14,16,58,26.40
2016,08,14,16,59,26.50
2016,08,14,17,00,26.50
2016,08,14,17,01,26.50
2016,08,14,17,02,26.50
2016,08,14,17,03,26.50
2016,08,14,17,04,26.60
2016,08,14,17,05,26.60
2016,08,14,17,06,26.70
2016,08,14,17,07,26.70
2016,08,14,17,08,26.80
2016,08,14,17,09,26.80
2016,08,14,17,10,26.80
2016,08,14,17,11,26.80
2016,08,14,17,12,26.70
2016,08,14,17,13,26.60
2016,08,14,17,14,26.60
2016,08,14,17,15,26.60
2016,08,14,17,16,26.60
2016,08,14,17,17,26.60
2016,08,14,17,18,26.60
2016,08,14,17,19,26.60
2016,08,14,17,20,26.60
2016,08,14,17,21,26.60
2016,08,14,17,22,26.60
2016,08,14,17,23,26.60
2016,08,14,17,24,26.60
2016,08,14,17,25,26.70
2016,08,14,17,26,26.70
2016,08,14,17,27,26.60
2016,08,14,17,28,26.60
2016,08,14,17,29,26.60
2016,08,14,17,30,26.60
2016,08,14,17,31,26.60
2016,08,14,17,32,26.70
2016,08,14,17,33,26.80
2016,08,14,17,34,26.80
2016,08,14,17,35,26.90
2016,08,14,17,36,26.90
2016,08,14,17,37,26.90
2016,08,14,17,38,26.90
2016,08,14,17,39,26.90
2016,08,14,17,40,26.90
2016,08,14,17,41,26.80
2016,08,14,17,42,26.70
2016,08,14,17,43,26.70
2016,08,14,17,44,26.60
2016,08,14,17,45,26.60
2016,08,14,17,46,26.60
2016,08,14,17,47,26.60
2016,08,14,17,48,26.60
2016,08,14,17,49,26.60
2016,08,14,17,50,26.60
2016,08,14,17,51,26.60
2016,08,14,17,52,26.60
2016,08,14,17,53,26.60
2016,08,14,17,54,26.60
2016,08,14,17,55,26.60
2016,08,14,17,56,26.60
2016,08,14,17,57,26.60
2016,08,14,17,58,26.60
2016,08,14,17,59,26.70
2016,08,14,18,00,26.70
2016,08,14,18,01,26.70
2016,08,14,18,02,26.70
2016,08,14,18,03,26.70
2016,08,14,18,04,26.70
2016,08,14,18,05,26.70
2016,08,14,18,06,26.70
2016,08,14,18,07,26.70
2016,08,14,18,08,26.70
2016,08,14,18,09,26.70
2016,08,14,18,10,26.70
2016,08,14,18,11,26.70
2016,08,14,18,12,26.80
2016,08,14,18,13,26.80
2016,08,14,18,14,26.80
2016,08,14,18,15,26.90
2016,08,14,18,16,26.80
2016,08,14,18,17,26.80
2016,08,14,18,18,26.80
2016,08,14,18,19,26.70
2016,08,14,18,20,26.70
2016,08,14,18,21,26.70
2016,08,14,18,22,26.70
2016,08,14,18,23,26.60
2016,08,14,18,24,26.60
2016,08,14,18,25,26.60
2016,08,14,18,26,26.60
2016,08,14,18,27,26.70
2016,08,14,18,28,26.70
2016,08,14,18,29,26.70
2016,08,14,18,30,26.70
2016,08,14,18,31,26.60
2016,08,14,18,32,26.60
2016,08,14,18,33,26.50
2016,08,14,18,34,26.40
2016,08,14,18,35,26.40
2016,08,14,18,36,26.30
2016,08,14,18,37,26.30
2016,08,14,18,38,26.20
2016,08,14,18,39,26.10
2016,08,14,18,40,26.10
2016,08,14,18,41,26.00
2016,08,14,18,42,25.90
2016,08,14,18,43,25.80
2016,08,14,18,44,25.70
2016,08,14,18,45,25.70
2016,08,14,18,46,25.70
2016,08,14,18,47,25.70
2016,08,14,18,48,25.70
2016,08,14,18,49,25.70
2016,08,14,18,50,25.70
2016,08,14,18,51,25.70
2016,08,14,18,52,25.70
2016,08,14,18,53,25.70
2016,08,14,18,54,25.70
